Regional Weather Roundup
Issued by NWS Jackson, KY

Home | Current Version | Previous Version | Text Only | Print | Product List | Glossary On
Versions: 1 2 3 4 5 6 7 8 9 10 11 12 13 14 15 16 17 18 19 20 21 22 23 24 25 26 27
000
ASUS43 KJKL 211110
RWRJKL

EAST KENTUCKY HOURLY WEATHER ROUNDUP
NATIONAL WEATHER SERVICE JACKSON KY
600 AM EST SAT JAN 21 2017

NOTE: "FAIR" INDICATES FEW OR NO CLOUDS BELOW 12,000 FEET WITH
NO SIGNIFICANT WEATHER AND/OR OBSTRUCTIONS TO VISIBILITY.

* THESE REPORTS ARE NOT UNDER NWS QUALITY CONTROL AND MAY NOT
  REPORT WEATHER SUCH AS PRECIPITATION AND FOG.

KYZ079-080-083-085-087-088-110-112-115-119-120-211200
...EASTERN KENTUCKY...

CITY           SKY/WX    TMP DP  RH WIND       PRES   REMARKS
JACKSON        PTCLDY    55  48  77 S3        29.78F
LONDON         CLEAR     49  45  86 S3        29.80R
SOMERSET*      CLEAR     52  48  87 S5        29.80R
MONTICELLO*    PTCLDY    46  45  96 VRB3      29.80R
WILLIAMSBURG*  SUNNY     54  52  94 SE8       29.80R
MIDDLESBORO*   PTCLDY    43  43 100 CALM      29.83F
HARLAN APT*    CLOUDY    45  45 100 CALM      29.83S VSB 1/4
PIKE CO APT*     N/A     54  49  82 SE6       29.80S
BIG SANDY APT* MOSUNNY   54  49  81 SE6       29.79F
MOREHEAD APT*  MOSUNNY   50  46  87 S7        29.78R
ASHLAND*       PTCLDY    43  41  93 E5        29.75F
$$

KYZ035-036-041-042-044-050-067-078-099-211200
...CENTRAL KENTUCKY...

CITY           SKY/WX    TMP DP  RH WIND       PRES   REMARKS
MT STERLING*   PTCLDY    52  48  87 SW7       29.78R
FLEMING/MASON* CLOUDY    51  47  86 S8        29.77R
DANVILLE*      CLEAR     46  45  93 CALM      29.78R
LEXINGTON      CLEAR     52  47  83 S8        29.76R
FRANKFORT      CLEAR     49  45  86 S6        29.73S
LOUISVILLE     PTCLDY    55  49  80 S8        29.72S
LEBANON*         N/A     57  50  77 S8        29.75S
GLASGOW*       CLOUDY    56  51  84 CALM      29.74F
BOWLING GREEN  PTCLDY    56  52  86 CALM      29.72F
$$

KYZ091>093-OHZ055-061-077-WVZ005-015-034-035-042-211200
...SOUTHERN OHIO/WEST VIRGINIA...

CITY           SKY/WX    TMP DP  RH WIND       PRES   REMARKS
COVINGTON      CLEAR     50  47  89 S8        29.71S
COLUMBUS       PTCLDY    49  45  86 E6        29.73F
DAYTON         MOCLDY    47  45  93 S8        29.71F
WILMINGTON     CLEAR     48  45  89 S5        29.72S
HUNTINGTON     CLOUDY    47  44  90 E6        29.76F
CHARLESTON     CLOUDY    45  44  97 CALM      29.80F
PINEVILLE*     PTCLDY    41  39  93 MISG      29.90S
BECKLEY        PTCLDY    49  44  83 S3        29.86S
BLUEFIELD      CLEAR     50  43  77 W3        29.87F
LOGAN CO APT*    N/A     55  48  76 CALM      29.82F
$$

VAZ002-007-008-TNZ017-027-036-066-071-211200
...SOUTHWEST VIRGINIA/EAST TENNESSEE...

CITY           SKY/WX    TMP DP  RH WIND       PRES   REMARKS
WISE*          CLOUDY    54  46  76 S7        29.87R
JONESVILLE*    PTSUNNY   48  48 100 CALM      29.86F
ABINGDON*      PTCLDY    47  47  99 E5        29.87R
BRISTOL        CLOUDY    46  45  96 CALM      29.86S
MORRISTOWN*    SUNNY     50  50 100 CALM      29.83S
SEVIERVILLE*   SUNNY     45  45 100 CALM      29.82F
KNOXVILLE      PTCLDY    50  47  89 NE3       29.81F
LAFOLLETTE*    FOG       43  43 100 CALM      29.86R VSB 1/2
OAK RIDGE      CLOUDY    50  48  93 CALM      29.84S
CROSSVILLE     CLEAR     53  51  93 S3        29.82S
NASHVILLE      CLOUDY    58  53  84 SE5       29.72F
$$

...KEY TO REMARKS...
VSB - VISIBILITY IN MILES
WCI - WIND CHILL INDEX
HX  - HEAT INDEX

$$




USA.gov is the U.S. government's official web portal to all federal, state and local government web resources and services.